Location: Mohawk View
(42.7837°N, 73.7885°W)
Time: 17:05:39
(UTC+00:00)

CZ-4B R/B - Pass Details

Date: 17 June 2021
Orbit: 702 x 803 km, 98.9° (Epoch: 01 August)

Event Time Altitude Azimuth Distance (km) Brightness Sun altitude
Rises 08:15:07 0° 13° (NNE) 3,325 7.9 -9.5°
Reaches altitude 10° 08:17:28 10° 13° (NNE) 2,389 7.0 -9.2°
Maximum altitude 08:22:47 87° 286° (WNW) 805 3.6 -8.5°
Drops below altitude 10° 08:27:59 10° 197° (SSW) 2,342 5.5 -7.8°
Enters shadow 08:29:07 - 197° (SSW) 2,791 5.9 -7.7°
